DW6099 Weather Reports


Display with metric or nautical units.
time (UTC)temp
F
wind
direction
speed
MPH
gust
MPH
rain 1hr
in
rain 24hr
in
rain mn
in
humidity
%
barometer
mb
20190620211631 63 175 0.0 5.0 0.01 0.03 0.03 79 1014.7
20190620210221 61 189 0.0 5.0 0.01 0.03 0.03 75 1014.7
20190620204614 66 258 0.0 4.0 0.01 0.02 0.02 59 1014.7
20190620203143 67 74 0.0 4.0 0.02 0.02 0.02 55 1014.7
20190620201615 65 162 0.0 2.0 0.02 0.02 0.02 66 1014.7
20190620200150 62 355 0.0 0.0 0.02 0.02 0.02 74 1014.7
20190620194755 61 355 0.0 5.0 0.01 0.01 0.01 71 1014.7
20190620193112 64 159 0.0 2.0 0.00 0.00 0.00 55 1014.7
20190620191717 64 179 0.0 0.0 0.00 0.00 0.00 56 1014.7
20190620190113 63 139 1.0 3.0 0.00 0.00 0.00 58 1014.7
20190620184614 62 155 0.0 2.0 0.00 0.00 0.00 59 1014.7
20190620183144 62 22 0.0 0.0 0.00 0.00 0.00 60 1014.7
20190620181603 63 53 0.0 0.0 0.00 0.00 0.00 59 1014.7
20190620180056 61 217 0.0 6.0 0.00 0.00 0.00 62 1014.7
20190620174553 60 278 0.0 1.0 0.00 0.00 0.00 61 1014.7
20190620173041 61 5 3.0 6.0 0.00 0.00 0.00 62 1014.7
20190620171539 60 344 0.0 2.0 0.00 0.00 0.00 64 1014.7
20190620170116 60 16 0.0 4.0 0.00 0.00 0.00 65 1014.7
20190620164606 60 9 0.0 4.0 0.00 0.00 0.00 63 1014.7
20190620163038 60 15 0.0 2.0 0.00 0.00 0.00 67 1014.7
20190620161550 59 340 0.0 1.0 0.00 0.00 0.00 68 1014.7
20190620160038 58 340 0.0 0.0 0.00 0.00 0.00 69 1014.7
20190620154521 57 325 0.0 0.0 0.00 0.00 0.00 74 1014.7
20190620153024 56 325 0.0 0.0 0.00 0.00 0.00 75 1014.7
20190620151544 55 325 0.0 0.0 0.00 0.00 0.00 78 1014.7
20190620150009 54 325 0.0 0.0 0.00 0.00 0.00 80 1014.7
20190620144513 54 325 0.0 0.0 0.00 0.00 0.00 82 1014.7
20190620143016 54 250 0.0 0.0 0.00 0.00 0.00 84 1014.7
20190620141521 53 250 0.0 0.0 0.00 0.00 0.00 82 1014.7
20190620140005 53 250 0.0 0.0 0.00 0.00 0.00 81 1014.7
20190620134518 53 250 0.0 0.0 0.00 0.00 0.00 80 1014.7
20190620133222 53 250 0.0 5.0 0.00 0.00 0.00 79 1014.7
20190620131746 53 251 1.0 4.0 0.00 0.00 0.00 79 1014.7
20190620130215 53 259 0.0 3.0 0.00 0.00 0.00 79 1014.7
20190620124706 53 253 0.0 0.0 0.00 0.00 0.00 79 1014.7
20190620123207 53 248 0.0 0.0 0.00 0.00 0.00 79 1014.7
20190620121630 52 248 0.0 3.0 0.00 0.00 0.00 79 1014.7
20190620120203 52 252 0.0 4.0 0.00 0.00 0.00 79 1014.7
20190620114719 52 213 0.0 0.0 0.00 0.00 0.00 79 1014.7
20190620113242 52 213 0.0 0.0 0.00 0.00 0.00 79 1014.7
20190620111654 52 134 0.0 0.0 0.00 0.00 0.00 80 1014.7
20190620110227 52 134 0.0 0.0 0.00 0.00 0.00 79 1014.7
20190620104611 52 134 0.0 0.0 0.00 0.00 0.00 80 1014.7
20190620103147 52 134 0.0 0.0 0.00 0.00 0.00 79 1014.7
20190620101611 51 135 0.0 1.0 0.00 0.00 0.00 79 1014.7
20190620100222 51 355 0.0 0.0 0.00 0.00 0.00 79 1014.7
20190620094641 51 355 0.0 0.0 0.00 0.00 0.00 80 1014.7
20190620093127 51 253 0.0 0.0 0.00 0.00 0.00 76 1014.7
20190620091659 51 253 0.0 0.0 0.00 0.00 0.00 76 1014.7
20190620090136 51 253 0.0 0.0 0.00 0.00 0.00 74 1014.7
20190620084617 51 253 0.0 0.0 0.00 0.00 0.00 74 1014.7
20190620083103 51 253 0.0 0.0 0.00 0.00 0.00 73 1014.7
20190620081626 51 253 0.0 3.0 0.00 0.00 0.00 72 1014.7
20190620080110 52 238 0.0 0.0 0.00 0.00 0.00 71 1014.7
20190620074610 52 262 0.0 0.0 0.00 0.00 0.00 71 1014.7
20190620073111 53 262 0.0 0.0 0.00 0.00 0.00 68 1014.7
20190620071611 53 262 0.0 0.0 0.00 0.00 0.00 68 1014.7
20190620070053 53 262 0.0 1.0 0.00 0.00 0.00 67 1014.7
20190620064631 53 219 0.0 0.0 0.00 0.00 0.00 67 1014.7
20190620063146 54 219 0.0 0.0 0.00 0.00 0.00 66 1014.7
20190620061600 54 219 0.0 0.0 0.00 0.00 0.00 65 1014.7
20190620060157 54 219 0.0 0.0 0.00 0.00 0.00 64 1014.7
20190620054631 55 5 0.0 0.0 0.00 0.00 0.00 63 1014.7
20190620053053 56 5 0.0 0.0 0.00 0.00 0.00 60 1014.7
20190620051626 56 355 0.0 0.0 0.00 0.00 0.00 60 1014.7
20190620050046 56 355 0.0 0.0 0.00 0.00 0.00 57 1014.7
20190620044554 57 355 0.0 0.0 0.00 0.00 0.00 57 1014.7
20190620043041 57 355 0.0 3.0 0.00 0.00 0.00 55 1014.7
20190620041558 58 18 1.0 5.0 0.00 0.00 0.00 54 1014.7
20190620040036 58 5 0.0 2.0 0.00 0.00 0.00 57 1014.7
20190620034547 59 360 1.0 8.0 0.00 0.00 0.00 57 1014.7
20190620033039 60 5 5.0 10.0 0.00 0.00 0.00 55 1014.7
20190620031527 60 360 9.0 14.0 0.00 0.00 0.00 54 1014.7
20190620030131 62 9 5.0 10.0 0.00 0.00 0.00 54 1014.7
20190620024544 63 13 5.0 11.0 0.00 0.00 0.00 54 1014.7
20190620023028 64 360 1.0 7.0 0.00 0.00 0.00 51 1014.7
20190620021616 65 268 0.0 1.0 0.00 0.00 0.00 50 1014.7
20190620020049 67 36 1.0 10.0 0.00 0.00 0.00 47 1014.7
20190620014556 69 13 3.0 10.0 0.00 0.00 0.00 45 1014.7
20190620013049 69 20 8.0 12.0 0.00 0.00 0.00 45 1014.7
20190620011534 70 360 4.0 9.0 0.00 0.00 0.00 47 1014.7
20190620010029 70 360 2.0 10.0 0.00 0.00 0.00 46 1014.7
20190620004626 69 360 2.0 10.0 0.00 0.00 0.00 47 1014.7
20190620003050 68 15 4.0 10.0 0.00 0.00 0.00 48 1014.7
20190620001541 69 355 5.0 11.0 0.00 0.00 0.00 49 1014.7
20190620000048 70 19 2.0 9.0 0.00 0.00 0.00 48 1014.7
20190619234556 71 360 0.0 9.0 0.00 0.00 0.00 49 1014.7
20190619233032 72 157 1.0 8.0 0.00 0.00 0.00 47 1014.7
20190619231555 73 167 1.0 9.0 0.00 0.00 0.00 45 1014.7
20190619230027 74 5 0.0 2.0 0.00 0.00 0.00 46 1014.7
20190619224609 75 14 1.0 6.0 0.00 0.00 0.00 47 1014.7
20190619223054 75 11 0.0 6.0 0.00 0.00 0.00 43 1014.7
20190619221539 76 355 0.0 9.0 0.00 0.00 0.00 45 1014.7
20190619220022 77 22 1.0 4.0 0.00 0.00 0.00 41 1014.7
20190619214527 74 26 0.0 4.0 0.00 0.00 0.00 47 1014.7
20190619213018 73 5 0.0 4.0 0.00 0.00 0.00 46 1014.7